AUA201 LOWW-LEBL

Flight info

Callsign AUA201
Flight time N/A
Altitude 38000
Route OSPEN DCT ABRUK DCT SETAL DCT DETSA/N0450F390 DCT BAKOR DCT GEKBA DCT VAMTU DCT KOLON DCT GANGU DCT PADKO DCT DIVKO DCT NILDU DCT BISBA
Aircraft A20N/M-SDE2E3FGHIRWXY/LB1

Departure

Time 2026-04-21 15:50
Airport Vienna International Airport (LOWW)

Arrival

Time N/A
Airport Josep Tarradellas Barcelona-El Prat Airport (LEBL)
Time Latitude Longitude Altitude Speed Heading
2026-04-21 15:19 48.11897 16.56767 621 ft 0 kts 206°
2026-04-21 15:40 48.11918 16.56779 622 ft 7 kts 191°
2026-04-21 15:40 48.11969 16.56774 624 ft 7 kts 159°
2026-04-21 15:40 48.12007 16.56735 622 ft 7 kts 128°
2026-04-21 15:40 48.12014 16.56720 615 ft 0 kts 121°
2026-04-21 15:41 48.12007 16.56743 620 ft 6 kts 112°
2026-04-21 15:41 48.11976 16.56841 618 ft 15 kts 117°
2026-04-21 15:41 48.11915 16.57026 623 ft 24 kts 116°
2026-04-21 15:41 48.11832 16.57278 613 ft 28 kts 113°
2026-04-21 15:42 48.11836 16.57489 617 ft 2 kts 69°
2026-04-21 15:42 48.11835 16.57491 614 ft 0 kts 84°
2026-04-21 15:42 48.11832 16.57496 618 ft 0 kts 121°
2026-04-21 15:43 48.11828 16.57498 618 ft 1 kts 149°
2026-04-21 15:43 48.11823 16.57498 618 ft 2 kts 173°
2026-04-21 15:43 48.11807 16.57493 616 ft 4 kts 193°
2026-04-21 15:43 48.11772 16.57491 610 ft 6 kts 173°
2026-04-21 15:44 48.11719 16.57510 615 ft 9 kts 165°
2026-04-21 15:44 48.11647 16.57540 620 ft 12 kts 164°
2026-04-21 15:44 48.11554 16.57579 616 ft 15 kts 164°
2026-04-21 15:44 48.11441 16.57626 621 ft 18 kts 165°
2026-04-21 15:45 48.11309 16.57681 618 ft 21 kts 164°
2026-04-21 15:45 48.11161 16.57744 619 ft 23 kts 166°
2026-04-21 15:45 48.11132 16.57754 613 ft 2 kts 167°
2026-04-21 15:45 48.11110 16.57764 621 ft 5 kts 162°
2026-04-21 15:46 48.11070 16.57764 614 ft 5 kts 217°
2026-04-21 15:46 48.11068 16.57746 610 ft 0 kts 263°
2026-04-21 15:46 48.11067 16.57728 616 ft 3 kts 263°
2026-04-21 15:46 48.11066 16.57717 613 ft 0 kts 263°
2026-04-21 15:47 48.11068 16.57711 610 ft 1 kts 285°
2026-04-21 15:47 48.11075 16.57687 618 ft 4 kts 294°
2026-04-21 15:47 48.11090 16.57637 616 ft 7 kts 295°
2026-04-21 15:47 48.11102 16.57565 617 ft 7 kts 247°
2026-04-21 15:48 48.11079 16.57533 616 ft 0 kts 216°
2026-04-21 15:48 48.11077 16.57530 615 ft 2 kts 215°
2026-04-21 15:48 48.11062 16.57517 613 ft 0 kts 208°
2026-04-21 15:49 48.11051 16.57509 623 ft 3 kts 208°
2026-04-21 15:49 48.11022 16.57487 622 ft 6 kts 206°
2026-04-21 15:49 48.10977 16.57443 622 ft 9 kts 231°
2026-04-21 15:49 48.10977 16.57348 613 ft 10 kts 290°
2026-04-21 15:50 48.11055 16.57097 612 ft 57 kts 297°
2026-04-21 15:50 48.11324 16.56288 610 ft 115 kts 296°
2026-04-21 15:50 48.11761 16.55018 722 ft 149 kts 301°
2026-04-21 15:50 48.12137 16.53841 1848 ft 110 kts 300°
2026-04-21 15:51 48.12457 16.52724 2314 ft 128 kts 299°
2026-04-21 15:51 48.12793 16.51467 2982 ft 127 kts 297°
2026-04-21 15:51 48.13104 16.50182 3473 ft 147 kts 296°
2026-04-21 15:51 48.13259 16.49533 3532 ft 153 kts 296°
2026-04-21 15:52 48.13611 16.47998 3892 ft 155 kts 294°
2026-04-21 15:52 48.13958 16.46378 4066 ft 180 kts 293°
2026-04-21 15:52 48.14218 16.45142 4212 ft 193 kts 292°
2026-04-21 15:52 48.14717 16.42582 5151 ft 189 kts 290°
2026-04-21 15:53 48.15057 16.40674 5596 ft 202 kts 290°
2026-04-21 15:53 48.15488 16.38282 3758 ft 267 kts 289°
2026-04-21 15:53 48.15774 16.35456 2827 ft 277 kts 268°
2026-04-21 15:53 48.15175 16.32886 2809 ft 253 kts 236°
2026-04-21 15:54 48.13795 16.31147 3201 ft 269 kts 206°
2026-04-21 15:54 48.11950 16.30528 3582 ft 276 kts 177°
2026-04-21 15:54 48.10103 16.31234 3956 ft 275 kts 149°
2026-04-21 15:54 48.08673 16.33054 4017 ft 270 kts 121°
2026-04-21 15:55 48.08007 16.35629 4434 ft 264 kts 95°
2026-04-21 15:55 48.07612 16.38315 4879 ft 269 kts 110°
2026-04-21 15:55 48.06514 16.40589 5005 ft 275 kts 137°
2026-04-21 15:55 48.04809 16.41940 5022 ft 282 kts 164°
2026-04-21 15:56 48.02855 16.42036 5011 ft 284 kts 192°
2026-04-21 15:56 48.01063 16.40830 5011 ft 284 kts 220°
2026-04-21 15:56 47.99708 16.38783 5011 ft 280 kts 233°
2026-04-21 15:56 47.98501 16.36501 5015 ft 282 kts 234°
2026-04-21 15:57 47.97272 16.34226 5015 ft 281 kts 232°
2026-04-21 15:57 47.96120 16.31850 5147 ft 284 kts 244°
2026-04-21 15:57 47.95330 16.29188 5805 ft 278 kts 254°
2026-04-21 15:57 47.94688 16.26450 6291 ft 282 kts 253°
2026-04-21 15:58 47.94017 16.23696 6825 ft 283 kts 253°
2026-04-21 15:58 47.93336 16.20940 7351 ft 283 kts 253°
2026-04-21 15:58 47.92654 16.18181 7855 ft 284 kts 252°
2026-04-21 15:58 47.91972 16.15421 8368 ft 284 kts 252°
2026-04-21 15:59 47.91519 16.13587 8694 ft 285 kts 252°
2026-04-21 15:59 47.90599 16.09864 9364 ft 287 kts 252°
2026-04-21 15:59 47.89908 16.07067 9840 ft 288 kts 252°
2026-04-21 15:59 47.89214 16.04260 10237 ft 292 kts 252°
2026-04-21 16:00 47.88499 16.01363 10331 ft 303 kts 252°
2026-04-21 16:00 47.87699 15.98406 10424 ft 313 kts 245°
2026-04-21 16:00 47.86704 15.96108 10487 ft 322 kts 233°
2026-04-21 16:00 47.85104 15.93786 10604 ft 329 kts 219°
2026-04-21 16:01 47.83259 15.91732 10813 ft 332 kts 219°
2026-04-21 16:01 47.81426 15.89681 11255 ft 323 kts 219°
2026-04-21 16:01 47.79686 15.87726 12064 ft 304 kts 219°
2026-04-21 16:01 47.78053 15.85887 12974 ft 285 kts 220°
2026-04-21 16:02 47.76521 15.84158 13855 ft 272 kts 220°
2026-04-21 16:02 47.75007 15.82445 14521 ft 276 kts 221°
2026-04-21 16:02 47.73426 15.80649 14826 ft 297 kts 220°
2026-04-21 16:02 47.71720 15.78716 15044 ft 320 kts 220°
2026-04-21 16:03 47.69890 15.76649 15264 ft 341 kts 220°
2026-04-21 16:03 47.68611 15.75211 15415 ft 354 kts 219°
2026-04-21 16:03 47.65972 15.72254 16254 ft 361 kts 220°
2026-04-21 16:03 47.63957 15.69999 17015 ft 365 kts 220°
2026-04-21 16:04 47.61926 15.67725 17756 ft 368 kts 220°
2026-04-21 16:04 47.59866 15.65419 18441 ft 372 kts 220°
2026-04-21 16:04 47.58468 15.63855 18825 ft 374 kts 220°
2026-04-21 16:04 47.56384 15.61525 19443 ft 377 kts 220°
2026-04-21 16:05 47.54283 15.59176 20064 ft 380 kts 220°
2026-04-21 16:05 47.52166 15.56813 20698 ft 382 kts 220°
2026-04-21 16:05 47.50124 15.54286 21273 ft 383 kts 230°
2026-04-21 16:05 47.48545 15.51193 21862 ft 381 kts 243°
2026-04-21 16:06 47.47500 15.47614 22421 ft 380 kts 256°
2026-04-21 16:06 47.46782 15.43851 23064 ft 381 kts 257°
2026-04-21 16:06 47.46057 15.40062 23661 ft 384 kts 257°
2026-04-21 16:06 47.45321 15.36250 24164 ft 387 kts 257°
2026-04-21 16:07 47.44330 15.31164 24843 ft 390 kts 256°
2026-04-21 16:07 47.43820 15.28562 25201 ft 391 kts 256°
2026-04-21 16:07 47.43061 15.24694 25687 ft 393 kts 256°
2026-04-21 16:07 47.42296 15.20804 26114 ft 396 kts 256°
2026-04-21 16:08 47.40754 15.12983 27019 ft 400 kts 256°
2026-04-21 16:08 47.39972 15.09030 27424 ft 402 kts 256°
2026-04-21 16:08 47.39183 15.05053 27816 ft 405 kts 256°
2026-04-21 16:09 47.38388 15.01047 28230 ft 408 kts 256°
2026-04-21 16:09 47.37588 14.97028 28657 ft 409 kts 256°
2026-04-21 16:09 47.36783 14.92991 29035 ft 411 kts 256°
2026-04-21 16:09 47.36112 14.89626 29340 ft 413 kts 256°
2026-04-21 16:10 47.35294 14.85541 29711 ft 416 kts 256°
2026-04-21 16:10 47.34473 14.81446 30123 ft 417 kts 256°
2026-04-21 16:10 47.33647 14.77332 30375 ft 419 kts 256°
2026-04-21 16:10 47.32816 14.73206 30664 ft 421 kts 256°
2026-04-21 16:11 47.31979 14.69056 30968 ft 423 kts 256°
2026-04-21 16:11 47.31137 14.64889 31304 ft 424 kts 256°
2026-04-21 16:11 47.30294 14.60733 31704 ft 424 kts 256°
2026-04-21 16:11 47.29448 14.56566 32093 ft 423 kts 256°
2026-04-21 16:12 47.28601 14.52405 32481 ft 423 kts 256°
2026-04-21 16:12 47.27769 14.48324 32896 ft 421 kts 256°
2026-04-21 16:12 47.26925 14.44197 33258 ft 421 kts 256°
2026-04-21 16:12 47.26080 14.40069 33630 ft 420 kts 256°
2026-04-21 16:13 47.25234 14.35945 33981 ft 419 kts 257°
2026-04-21 16:13 47.24392 14.31848 34295 ft 418 kts 257°
2026-04-21 16:13 47.23546 14.27741 34550 ft 419 kts 257°
2026-04-21 16:13 47.22700 14.23639 34791 ft 419 kts 256°
2026-04-21 16:14 47.21848 14.19536 35035 ft 419 kts 256°
2026-04-21 16:14 47.20993 14.15419 35283 ft 419 kts 256°
2026-04-21 16:14 47.20142 14.11324 35497 ft 419 kts 256°
2026-04-21 16:14 47.19285 14.07211 35693 ft 420 kts 256°
2026-04-21 16:15 47.18428 14.03103 35887 ft 420 kts 256°
2026-04-21 16:15 47.17571 13.99004 36107 ft 420 kts 256°
2026-04-21 16:15 47.16708 13.94889 36303 ft 421 kts 256°
2026-04-21 16:15 47.15856 13.90835 36501 ft 421 kts 256°
2026-04-21 16:16 47.14985 13.86700 36696 ft 421 kts 256°
2026-04-21 16:16 47.14119 13.82592 36882 ft 421 kts 256°
2026-04-21 16:16 47.13248 13.78471 37055 ft 422 kts 256°
2026-04-21 16:16 47.12376 13.74355 37241 ft 422 kts 256°
2026-04-21 16:17 47.11500 13.70231 37393 ft 423 kts 256°
2026-04-21 16:17 47.10623 13.66109 37571 ft 423 kts 256°
2026-04-21 16:17 47.09744 13.61985 37773 ft 423 kts 256°
2026-04-21 16:17 47.08866 13.57870 37908 ft 423 kts 256°
2026-04-21 16:18 47.07984 13.53749 38030 ft 424 kts 256°
2026-04-21 16:18 47.06201 13.45429 38081 ft 431 kts 256°
2026-04-21 16:19 47.04392 13.37028 38072 ft 438 kts 256°
2026-04-21 16:19 47.02541 13.28479 38066 ft 440 kts 256°
2026-04-21 16:20 47.00685 13.19942 38073 ft 440 kts 256°
2026-04-21 16:20 46.98823 13.11404 38061 ft 440 kts 256°
2026-04-21 16:21 46.96957 13.02887 38056 ft 439 kts 255°
2026-04-21 16:21 46.95083 12.94367 38057 ft 439 kts 255°
2026-04-21 16:22 46.93205 12.85859 38049 ft 440 kts 255°
2026-04-21 16:22 46.91318 12.77352 38050 ft 438 kts 255°
2026-04-21 16:23 46.89439 12.68912 38039 ft 439 kts 255°
2026-04-21 16:23 46.87545 12.60442 38021 ft 438 kts 255°
2026-04-21 16:24 46.85651 12.52002 38011 ft 436 kts 255°
2026-04-21 16:24 46.83746 12.43545 38012 ft 438 kts 255°
2026-04-21 16:25 46.81836 12.35095 37993 ft 438 kts 255°
2026-04-21 16:25 46.79740 12.26764 37995 ft 440 kts 250°
2026-04-21 16:26 46.76993 12.18748 37983 ft 441 kts 247°
2026-04-21 16:26 46.74229 12.10825 37996 ft 440 kts 247°
2026-04-21 16:27 46.71451 12.02869 37988 ft 440 kts 247°
2026-04-21 16:27 46.68667 11.94928 37983 ft 439 kts 247°
2026-04-21 16:28 46.65877 11.86997 37968 ft 440 kts 247°
2026-04-21 16:28 46.63087 11.79086 37966 ft 438 kts 247°
2026-04-21 16:29 46.60022 11.71449 37939 ft 443 kts 240°
2026-04-21 16:29 46.56199 11.64362 37931 ft 445 kts 236°
2026-04-21 16:30 46.52315 11.57375 37909 ft 445 kts 236°
2026-04-21 16:30 46.48434 11.50377 37913 ft 443 kts 236°
2026-04-21 16:31 46.44580 11.43442 37908 ft 443 kts 236°
2026-04-21 16:31 46.41474 11.37867 37912 ft 442 kts 236°
2026-04-21 16:32 46.38342 11.32263 37908 ft 442 kts 236°
2026-04-21 16:32 46.34476 11.25360 37993 ft 441 kts 236°
2026-04-21 16:33 46.30627 11.18507 37997 ft 437 kts 237°
2026-04-21 16:33 46.26766 11.11637 37989 ft 442 kts 236°
2026-04-21 16:34 46.22888 11.04765 37986 ft 441 kts 236°
2026-04-21 16:34 46.19007 10.97904 37983 ft 440 kts 236°
2026-04-21 16:35 46.15123 10.91051 37973 ft 441 kts 236°
2026-04-21 16:35 46.11267 10.84268 37966 ft 439 kts 236°
2026-04-21 16:36 46.07381 10.77448 37970 ft 441 kts 236°
2026-04-21 16:36 46.03496 10.70646 37961 ft 439 kts 236°
2026-04-21 16:37 45.99609 10.63855 37964 ft 439 kts 236°
2026-04-21 16:37 45.95735 10.57104 37963 ft 440 kts 236°
2026-04-21 16:38 45.91839 10.50334 37963 ft 438 kts 236°
2026-04-21 16:38 45.87950 10.43589 37970 ft 438 kts 236°
2026-04-21 16:39 45.84047 10.36837 37956 ft 439 kts 236°
2026-04-21 16:39 45.80156 10.30125 37966 ft 438 kts 236°
2026-04-21 16:40 45.76268 10.23432 37953 ft 437 kts 236°
2026-04-21 16:40 45.72377 10.16747 37949 ft 438 kts 236°
2026-04-21 16:41 45.69126 10.11177 37952 ft 437 kts 236°
2026-04-21 16:41 45.64576 10.03398 37949 ft 436 kts 236°
2026-04-21 16:42 45.60703 9.96794 37955 ft 436 kts 236°
2026-04-21 16:42 45.56807 9.90167 37952 ft 435 kts 236°
2026-04-21 16:43 45.52913 9.83559 37949 ft 435 kts 236°
2026-04-21 16:43 45.49024 9.76973 37950 ft 434 kts 235°
2026-04-21 16:44 45.45126 9.70389 37949 ft 433 kts 235°
2026-04-21 16:44 45.41238 9.63836 37953 ft 433 kts 235°
2026-04-21 16:45 45.37339 9.57281 37943 ft 433 kts 235°
2026-04-21 16:45 45.33449 9.50757 37928 ft 432 kts 235°
2026-04-21 16:46 45.29553 9.44238 37929 ft 432 kts 235°
2026-04-21 16:46 45.25685 9.37779 37927 ft 432 kts 235°
2026-04-21 16:47 45.21790 9.31292 37927 ft 431 kts 235°
2026-04-21 16:47 45.17896 9.24821 37921 ft 431 kts 235°
2026-04-21 16:48 45.13997 9.18355 37909 ft 431 kts 235°
2026-04-21 16:48 45.10097 9.11905 37911 ft 431 kts 235°
2026-04-21 16:49 45.06212 9.05493 37909 ft 431 kts 235°
2026-04-21 16:49 45.03645 9.01265 37908 ft 430 kts 235°
2026-04-21 16:50 45.00269 8.95713 37912 ft 430 kts 235°
2026-04-21 16:50 44.98414 8.92667 37929 ft 430 kts 235°
2026-04-21 16:51 44.95122 8.87274 37907 ft 430 kts 235°
2026-04-21 16:51 44.91222 8.80892 37909 ft 430 kts 235°
2026-04-21 16:52 44.87303 8.74494 37905 ft 430 kts 234°
2026-04-21 16:52 44.83392 8.68125 37909 ft 429 kts 234°
2026-04-21 16:53 44.79479 8.61766 37905 ft 430 kts 234°
2026-04-21 16:53 44.75587 8.55456 37903 ft 429 kts 234°
2026-04-21 16:54 44.71668 8.49118 37899 ft 429 kts 234°
2026-04-21 16:54 44.67741 8.42780 37901 ft 429 kts 234°
2026-04-21 16:55 44.63810 8.36449 37904 ft 429 kts 234°
2026-04-21 16:55 44.59888 8.30149 37901 ft 428 kts 234°
2026-04-21 16:56 44.55962 8.23854 37900 ft 429 kts 234°
2026-04-21 16:56 44.52058 8.17610 37888 ft 427 kts 234°
2026-04-21 16:57 44.48131 8.11341 37897 ft 429 kts 234°
2026-04-21 16:57 44.44195 8.05072 37896 ft 428 kts 234°
2026-04-21 16:58 44.40258 7.98819 37907 ft 427 kts 234°
2026-04-21 16:58 44.36311 7.92558 37897 ft 429 kts 234°
2026-04-21 16:59 44.32387 7.86344 37903 ft 429 kts 234°
2026-04-21 16:59 44.28429 7.80102 37902 ft 430 kts 233°
2026-04-21 17:00 44.24102 7.74249 37906 ft 436 kts 226°
2026-04-21 17:00 44.20311 7.69621 37940 ft 434 kts 227°
2026-04-21 17:01 44.15028 7.63057 37906 ft 434 kts 230°
2026-04-21 17:01 44.10999 7.56866 37908 ft 431 kts 234°
2026-04-21 17:02 44.07080 7.50565 37881 ft 430 kts 234°
2026-04-21 17:02 44.03153 7.44291 37904 ft 430 kts 234°
2026-04-21 17:03 43.99251 7.38074 37905 ft 431 kts 234°
2026-04-21 17:03 43.95308 7.31806 37902 ft 430 kts 234°
2026-04-21 17:04 43.91361 7.25547 37903 ft 431 kts 234°
2026-04-21 17:04 43.87416 7.19303 37910 ft 430 kts 234°
2026-04-21 17:05 43.83461 7.13058 37906 ft 430 kts 234°
2026-04-21 17:05 43.79549 7.06894 37915 ft 429 kts 234°
2026-04-21 17:06 43.75602 7.00671 37909 ft 431 kts 235°
2026-04-21 17:06 43.72169 6.93992 37905 ft 422 kts 245°
2026-04-21 17:07 43.69997 6.87976 37903 ft 420 kts 251°
2026-04-21 17:07 43.67453 6.79234 37907 ft 419 kts 252°
2026-04-21 17:08 43.65255 6.71776 37906 ft 420 kts 251°
2026-04-21 17:08 43.63044 6.64310 37900 ft 420 kts 251°
2026-04-21 17:09 43.59712 6.53108 37887 ft 419 kts 251°
2026-04-21 17:09 43.57488 6.45656 37887 ft 421 kts 251°
2026-04-21 17:10 43.55272 6.38251 37886 ft 420 kts 251°
2026-04-21 17:10 43.53039 6.30815 37883 ft 420 kts 251°
2026-04-21 17:11 43.50795 6.23360 37883 ft 420 kts 251°
2026-04-21 17:11 43.48547 6.15917 37883 ft 420 kts 251°
2026-04-21 17:12 43.46295 6.08481 37883 ft 421 kts 251°
2026-04-21 17:12 43.44039 6.01051 37877 ft 421 kts 251°
2026-04-21 17:13 43.41789 5.93664 37881 ft 421 kts 251°
2026-04-21 17:13 43.39516 5.86224 37876 ft 421 kts 251°
2026-04-21 17:14 43.37239 5.78791 37883 ft 421 kts 251°
2026-04-21 17:14 43.34962 5.71378 37883 ft 421 kts 251°
2026-04-21 17:15 43.32695 5.64021 37885 ft 420 kts 251°
2026-04-21 17:15 43.30414 5.56636 37885 ft 421 kts 250°
2026-04-21 17:16 43.28135 5.49279 37884 ft 420 kts 250°
2026-04-21 17:16 43.26215 5.43098 37880 ft 420 kts 250°
2026-04-21 17:17 43.23932 5.35767 37886 ft 421 kts 250°
2026-04-21 17:17 43.21629 5.28391 37884 ft 421 kts 250°
2026-04-21 17:18 43.19319 5.21020 37883 ft 421 kts 250°
2026-04-21 17:18 43.17011 5.13676 37803 ft 414 kts 250°
2026-04-21 17:19 43.15884 5.10101 37663 ft 404 kts 250°
2026-04-21 17:19 43.14775 5.06588 37190 ft 399 kts 250°
2026-04-21 17:19 43.13674 5.03096 36514 ft 399 kts 250°
2026-04-21 17:19 43.12572 4.99603 35791 ft 400 kts 250°
2026-04-21 17:20 43.11466 4.96103 35085 ft 400 kts 250°
2026-04-21 17:20 43.10371 4.92644 34414 ft 401 kts 250°
2026-04-21 17:20 43.09261 4.89144 33736 ft 401 kts 250°
2026-04-21 17:20 43.08162 4.85693 33504 ft 388 kts 250°
2026-04-21 17:21 43.07096 4.82362 33373 ft 375 kts 249°
2026-04-21 17:21 43.05872 4.79272 33233 ft 365 kts 241°
2026-04-21 17:21 43.04378 4.76506 33005 ft 359 kts 234°
2026-04-21 17:21 43.02637 4.74041 32393 ft 364 kts 227°
2026-04-21 17:22 43.00719 4.71743 31661 ft 368 kts 227°
2026-04-21 17:22 42.98784 4.69414 30936 ft 372 kts 227°
2026-04-21 17:22 42.96835 4.67060 30248 ft 376 kts 227°
2026-04-21 17:22 42.94867 4.64685 29618 ft 376 kts 226°
2026-04-21 17:23 42.92939 4.62361 29131 ft 372 kts 226°
2026-04-21 17:23 42.91005 4.60033 28623 ft 369 kts 226°
2026-04-21 17:23 42.89090 4.57728 28130 ft 366 kts 226°
2026-04-21 17:23 42.87185 4.55436 27609 ft 363 kts 226°
2026-04-21 17:24 42.85298 4.53167 27109 ft 361 kts 226°
2026-04-21 17:24 42.83421 4.50911 26608 ft 359 kts 226°
2026-04-21 17:24 42.81555 4.48670 26127 ft 356 kts 226°
2026-04-21 17:24 42.79698 4.46442 25651 ft 354 kts 226°
2026-04-21 17:25 42.77855 4.44234 25179 ft 353 kts 226°
2026-04-21 17:25 42.76014 4.42029 24712 ft 351 kts 226°
2026-04-21 17:25 42.74188 4.39844 24260 ft 349 kts 226°
2026-04-21 17:25 42.72374 4.37677 23985 ft 344 kts 226°
2026-04-21 17:26 42.70576 4.35528 23905 ft 346 kts 226°
2026-04-21 17:26 42.68754 4.33350 23894 ft 349 kts 226°
2026-04-21 17:26 42.66927 4.31171 23894 ft 349 kts 226°
2026-04-21 17:26 42.65100 4.28994 23898 ft 349 kts 225°
2026-04-21 17:27 42.63294 4.26845 23896 ft 349 kts 225°
2026-04-21 17:27 42.61469 4.24674 23898 ft 349 kts 225°
2026-04-21 17:27 42.59639 4.22499 23898 ft 349 kts 225°
2026-04-21 17:27 42.57805 4.20321 23897 ft 349 kts 225°
2026-04-21 17:28 42.55976 4.18150 23896 ft 350 kts 225°
2026-04-21 17:28 42.54142 4.15975 23896 ft 350 kts 225°
2026-04-21 17:28 42.52307 4.13802 23896 ft 350 kts 225°
2026-04-21 17:28 42.50474 4.11632 23897 ft 350 kts 225°
2026-04-21 17:29 42.48636 4.09458 23896 ft 350 kts 225°
2026-04-21 17:29 42.46799 4.07287 23894 ft 351 kts 225°
2026-04-21 17:29 42.44982 4.05141 23900 ft 351 kts 225°
2026-04-21 17:29 42.43142 4.02970 23897 ft 351 kts 225°
2026-04-21 17:30 42.41300 4.00798 23898 ft 351 kts 225°
2026-04-21 17:30 42.39455 3.98625 23896 ft 352 kts 225°
2026-04-21 17:30 42.37608 3.96451 23895 ft 352 kts 225°
2026-04-21 17:30 42.35761 3.94278 23895 ft 352 kts 224°
2026-04-21 17:31 42.33912 3.92106 23895 ft 352 kts 224°
2026-04-21 17:31 42.32059 3.89929 23897 ft 353 kts 224°
2026-04-21 17:31 42.30204 3.87753 23896 ft 353 kts 224°
2026-04-21 17:31 42.28371 3.85605 23897 ft 353 kts 224°
2026-04-21 17:32 42.26512 3.83426 23898 ft 354 kts 224°
2026-04-21 17:32 42.24652 3.81248 23898 ft 354 kts 224°
2026-04-21 17:32 42.22780 3.79058 23894 ft 357 kts 224°
2026-04-21 17:32 42.20897 3.76857 23894 ft 357 kts 224°
2026-04-21 17:33 42.19025 3.74674 23894 ft 356 kts 224°
2026-04-21 17:33 42.17171 3.72512 23895 ft 356 kts 224°
2026-04-21 17:33 42.15284 3.70313 23892 ft 355 kts 224°
2026-04-21 17:33 42.13414 3.68134 23893 ft 355 kts 224°
2026-04-21 17:34 42.11544 3.65958 23895 ft 355 kts 224°
2026-04-21 17:34 42.09677 3.63788 23892 ft 354 kts 224°
2026-04-21 17:34 42.07896 3.61569 23893 ft 352 kts 229°
2026-04-21 17:34 42.06201 3.59182 23893 ft 352 kts 229°
2026-04-21 17:35 42.04509 3.56808 23891 ft 352 kts 229°
2026-04-21 17:35 42.02808 3.54429 23892 ft 351 kts 229°
2026-04-21 17:35 42.01109 3.52057 23893 ft 351 kts 229°
2026-04-21 17:35 41.99415 3.49695 23891 ft 351 kts 229°
2026-04-21 17:36 41.97724 3.47339 23889 ft 350 kts 229°
2026-04-21 17:36 41.96030 3.44981 23891 ft 350 kts 229°
2026-04-21 17:36 41.94335 3.42624 23894 ft 350 kts 229°
2026-04-21 17:36 41.92643 3.40273 23891 ft 349 kts 229°
2026-04-21 17:37 41.90955 3.37928 23892 ft 349 kts 229°
2026-04-21 17:37 41.89267 3.35585 23892 ft 349 kts 229°
2026-04-21 17:37 41.88146 3.34032 23892 ft 349 kts 229°
2026-04-21 17:37 41.85910 3.30933 23892 ft 349 kts 229°
2026-04-21 17:38 41.84223 3.28597 23890 ft 349 kts 229°
2026-04-21 17:38 41.82531 3.26259 23893 ft 349 kts 229°
2026-04-21 17:38 41.80841 3.23923 23891 ft 349 kts 229°
2026-04-21 17:38 41.79152 3.21591 23891 ft 349 kts 229°
2026-04-21 17:39 41.77462 3.19260 23893 ft 349 kts 229°
2026-04-21 17:39 41.75768 3.16924 23891 ft 349 kts 229°
2026-04-21 17:39 41.74084 3.14605 23732 ft 348 kts 229°
2026-04-21 17:39 41.72381 3.12260 23181 ft 353 kts 229°
2026-04-21 17:40 41.70652 3.09878 22331 ft 360 kts 229°
2026-04-21 17:40 41.68902 3.07469 21376 ft 370 kts 228°
2026-04-21 17:40 41.67064 3.04995 20459 ft 379 kts 224°
2026-04-21 17:40 41.65009 3.02823 20066 ft 374 kts 217°
2026-04-21 17:41 41.62779 3.01060 19594 ft 372 kts 208°
2026-04-21 17:41 41.60436 2.99611 19081 ft 369 kts 207°
2026-04-21 17:41 41.58122 2.98189 18794 ft 360 kts 207°
2026-04-21 17:41 41.55887 2.96810 18672 ft 347 kts 207°
2026-04-21 17:42 41.53742 2.95485 18548 ft 334 kts 207°
2026-04-21 17:42 41.51661 2.94198 18296 ft 327 kts 207°
2026-04-21 17:42 41.49605 2.92925 17873 ft 325 kts 207°
2026-04-21 17:42 41.47559 2.91660 17425 ft 323 kts 207°
2026-04-21 17:43 41.45522 2.90401 16992 ft 321 kts 207°
2026-04-21 17:43 41.43503 2.89156 16498 ft 321 kts 207°
2026-04-21 17:43 41.41492 2.87852 15713 ft 329 kts 212°
2026-04-21 17:43 41.39580 2.86078 14647 ft 344 kts 222°
2026-04-21 17:44 41.37847 2.83757 13544 ft 361 kts 228°
2026-04-21 17:44 41.36119 2.81272 12516 ft 369 kts 228°
2026-04-21 17:44 41.34352 2.78754 11545 ft 375 kts 228°
2026-04-21 17:44 41.32564 2.76222 10877 ft 373 kts 227°
2026-04-21 17:45 41.30803 2.73739 10487 ft 363 kts 227°
2026-04-21 17:45 41.29099 2.71338 10141 ft 352 kts 227°
2026-04-21 17:45 41.27433 2.68992 9734 ft 345 kts 228°
2026-04-21 17:45 41.26084 2.66418 9331 ft 335 kts 246°
2026-04-21 17:46 41.25445 2.63528 9175 ft 319 kts 263°
2026-04-21 17:46 41.25328 2.60650 9040 ft 305 kts 268°
2026-04-21 17:46 41.25249 2.57928 8918 ft 292 kts 268°
2026-04-21 17:46 41.25169 2.55293 8807 ft 279 kts 267°
2026-04-21 17:47 41.25090 2.52774 8697 ft 266 kts 267°
2026-04-21 17:47 41.25015 2.50370 8592 ft 254 kts 267°
2026-04-21 17:47 41.24942 2.48073 8469 ft 244 kts 267°
2026-04-21 17:47 41.24871 2.45841 8152 ft 240 kts 267°
2026-04-21 17:48 41.24917 2.44356 7978 ft 237 kts 281°
2026-04-21 17:48 41.26047 2.41842 7911 ft 248 kts 320°
2026-04-21 17:48 41.27570 2.40748 7908 ft 250 kts 333°
2026-04-21 17:48 41.29157 2.39813 7912 ft 249 kts 334°
2026-04-21 17:49 41.30839 2.39246 7907 ft 254 kts 359°
2026-04-21 17:49 41.32553 2.39830 7907 ft 259 kts 29°
2026-04-21 17:49 41.33847 2.41445 7905 ft 262 kts 58°
2026-04-21 17:49 41.34651 2.43626 7909 ft 263 kts 68°
2026-04-21 17:50 41.35301 2.45899 7904 ft 263 kts 69°
2026-04-21 17:50 41.35951 2.48161 7797 ft 260 kts 68°
2026-04-21 17:50 41.36638 2.50391 7458 ft 261 kts 66°
2026-04-21 17:50 41.37363 2.52607 7071 ft 261 kts 66°
2026-04-21 17:51 41.38107 2.54810 6697 ft 260 kts 65°
2026-04-21 17:51 41.38852 2.56987 6420 ft 255 kts 65°
2026-04-21 17:51 41.39572 2.59079 6310 ft 242 kts 65°
2026-04-21 17:51 41.40264 2.61088 6100 ft 236 kts 63°
2026-04-21 17:52 41.41307 2.62737 5753 ft 233 kts 30°
2026-04-21 17:52 41.42787 2.63399 5394 ft 227 kts 357°
2026-04-21 17:52 41.44288 2.62903 5058 ft 218 kts 324°
2026-04-21 17:52 41.45342 2.61561 4739 ft 211 kts 298°
2026-04-21 17:53 41.46055 2.60041 4449 ft 210 kts 298°
2026-04-21 17:53 41.46542 2.58258 4132 ft 204 kts 269°
2026-04-21 17:53 41.46206 2.56468 4022 ft 203 kts 244°
2026-04-21 17:53 41.45615 2.54757 3997 ft 202 kts 245°
2026-04-21 17:54 41.45037 2.53049 3999 ft 202 kts 245°
2026-04-21 17:54 41.44465 2.51347 3865 ft 201 kts 245°
2026-04-21 17:54 41.43895 2.49646 3566 ft 201 kts 245°